Location: Dehesa de la Cepeda
(40.6574°N, 4.3013°W)
Time: 09:38:09
(UTC+00:00)

Vanguard 2 Rocket - Pass Details

Date: 28 October 2021
Orbit: 555 x 3324 km, 32.9° (Epoch: 08 December)

Event Time Altitude Azimuth Distance (km) Brightness Sun altitude
Exits shadow 00:55:19 12° 122° (ESE) 5,569 10.8 -60.0°
Drops below altitude 10° 00:57:03 10° 116° (ESE) 5,597 10.8 -59.9°
Sets 01:04:13 0° 94° (E) 6,060 11.3 -59.2°
